ZHONGXING-11

Last updated on Sun Oct 06 2024 00:02:40 GMT+0000 (Coordinated Universal Time)

1 39157U 13020A 24279.56993831 -.00000280 00000+0 00000+0 0 9998 2 39157 0.0193 123.0070 0002989 164.4065 30.4115 1.00271832 41684
UTC large
Height (km)
Speed (km/s)
/
Latitude / Longitude
Inclination (degrees)
Orbital Period (minutes)
Azimuth
Elevation
Range (km)
Doppler Factor

Next 0 passes for location: London (51.5072 / 0.1276)

Sorry there are no passes over London.